,,PA_Meas_PMT16A,,PR_Meas_QMR101_102,,RH_Meas_QMH101,,SR_Meas_QMS101,,TA_Meas_QMH101,,GenWind,,GenWind,
time,status,PA,status,PR,status,RH,status,SR,status,TA,status,DirAvg,status,SpdAvg,
2014-12-29, 08:07:04,VALID,918.118,VALID,0,VALID,98.2582,VALID,71.2335,VALID,18.7878,VALID,139,VALID,0,
2014-12-29, 08:08:04,VALID,917.736,VALID,0.2,VALID,98.2506,VALID,72.093,VALID,18.8463,VALID,166,VALID,0,
2014-12-29, 08:09:04,VALID,917.761,VALID,0,VALID,98.2582,VALID,72.8451,VALID,18.8268,VALID,151,VALID,0,
2014-12-29, 08:10:04,VALID,917.909,VALID,0,VALID,98.2506,VALID,73.3823,VALID,18.8434,VALID,142,VALID,0,
2014-12-29, 08:11:04,VALID,916.828,VALID,0,VALID,98.2582,VALID,74.027,VALID,18.9034,VALID,142,VALID,0,
2014-12-29, 08:12:04,VALID,917.77,VALID,0,VALID,98.243,VALID,74.2418,VALID,18.8839,VALID,145,VALID,0,
2014-12-29, 08:13:04,VALID,919.166,VALID,0,VALID,98.2658,VALID,74.6716,VALID,18.8839,VALID,157,VALID,0,
2014-12-29, 08:14:04,VALID,918.86,VALID,0,VALID,98.2582,VALID,74.779,VALID,18.8644,VALID,143,VALID,0,
2014-12-29, 08:15:04,VALID,918.355,VALID,0,VALID,98.2582,VALID,74.779,VALID,18.8449,VALID,132,VALID,0,
2014-12-29, 08:16:04,VALID,917.466,VALID,0,VALID,98.2506,VALID,74.9939,VALID,18.8449,VALID,129,VALID,0.189063,
2014-12-29, 08:17:04,VALID,918.854,VALID,0,VALID,98.2735,VALID,74.6716,VALID,18.8254,VALID,140,VALID,0.862109,
2014-12-29, 08:18:04,VALID,918.04,VALID,0,VALID,98.2811,VALID,74.2418,VALID,18.7864,VALID,132,VALID,0.95,
2014-12-29, 08:19:04,VALID,919.098,VALID,0,VALID,98.2658,VALID,71.9856,VALID,18.8059,VALID,137,VALID,0.107031,
2014-12-29, 08:20:04,VALID,918.214,VALID,0,VALID,98.2658,VALID,73.9195,VALID,18.8449,VALID,153,VALID,0,
2014-12-29, 08:21:04,VALID,916.699,VALID,0,VALID,98.2658,VALID,74.5642,VALID,18.8449,VALID,148,VALID,0,
2014-12-29, 08:22:04,INVALID,919.386,VALID,0,VALID,98.2811,VALID,74.6716,VALID,18.8073,VALID,124,VALID,0.00195313,
2014-12-29, 08:23:04,VALID,918.686,VALID,0,VALID,98.2735,VALID,75.3162,VALID,18.8268,VALID,123,VALID,0,
2014-12-29, 08:24:04,VALID,917.654,VALID,0,VALID,98.2658,VALID,75.6386,VALID,18.8073,VALID,128,VALID,0,
2014-12-29, 08:25:04,VALID,916.241,VALID,0,VALID,98.2811,VALID,75.8535,VALID,18.8658,VALID,143,VALID,0,
2014-12-29, 08:26:04,INVALID,918.477,VALID,0,VALID,98.2811,VALID,76.0683,VALID,18.8463,VALID,111,VALID,0,
2014-12-29, 08:27:04,VALID,918.347,VALID,0,VALID,98.2963,VALID,76.4981,VALID,18.8268,VALID,135,VALID,0,
2014-12-29, 08:28:04,VALID,917.273,VALID,0,VALID,98.3039,VALID,76.9279,VALID,18.7683,VALID,112,VALID,0,
2014-12-29, 08:29:04,VALID,917.745,VALID,0,VALID,98.3039,VALID,77.4651,VALID,18.7878,VALID,122,VALID,0,
2014-12-29, 08:30:04,VALID,919.646,VALID,0,VALID,98.3039,VALID,78.0023,VALID,18.7878,VALID,99,VALID,0,
2014-12-29, 08:31:04,VALID,919.133,VALID,0,VALID,98.2887,VALID,78.6469,VALID,18.8268,VALID,120,VALID,0,
2014-12-29, 08:32:04,VALID,918.83,VALID,0,VALID,98.3116,VALID,79.1841,VALID,18.8658,VALID,113,VALID,0,
2014-12-29, 08:33:04,VALID,918.854,VALID,0,VALID,98.3116,VALID,79.8288,VALID,18.8073,VALID,112,VALID,0.0683594,
2014-12-29, 08:34:04,VALID,918.955,VALID,0,VALID,98.2963,VALID,80.2585,VALID,18.8059,VALID,111,VALID,0.365234,
2014-12-29, 08:35:04,VALID,919.279,VALID,0,VALID,98.3039,VALID,80.7957,VALID,18.7878,VALID,122,VALID,0.714844,
2014-12-29, 08:36:04,VALID,919.798,VALID,0,VALID,98.2963,VALID,81.2255,VALID,18.7864,VALID,113,VALID,0,
2014-12-29, 08:37:04,VALID,919.499,VALID,0,VALID,98.2963,VALID,81.5478,VALID,18.8268,VALID,111,VALID,0,
2014-12-29, 08:38:04,VALID,919.244,VALID,0,VALID,98.2887,VALID,81.8702,VALID,18.8853,VALID,99,VALID,0,
2014-12-29, 08:39:04,VALID,920.052,VALID,0,VALID,98.2658,VALID,82.1925,VALID,18.9633,VALID,93,VALID,0,
2014-12-29, 08:40:04,VALID,919.9,VALID,0,VALID,98.2582,VALID,82.6222,VALID,18.9243,VALID,93,VALID,0,
2014-12-29, 08:41:04,VALID,918.812,VALID,0,VALID,98.2658,VALID,83.1595,VALID,18.8853,VALID,93,VALID,0,
2014-12-29, 08:42:04,VALID,919.267,VALID,0,VALID,98.2582,VALID,83.8041,VALID,18.9828,VALID,93,VALID,0,
2014-12-29, 08:43:04,VALID,918.228,VALID,0,VALID,98.243,VALID,84.7711,VALID,18.9619,VALID,93,VALID,0,
2014-12-29, 08:44:04,VALID,918.86,VALID,0,VALID,98.2506,VALID,85.8455,VALID,18.9814,VALID,60,VALID,0,
2014-12-29, 08:45:04,VALID,918.519,VALID,0,VALID,98.2506,VALID,87.2422,VALID,19.0413,VALID,59,VALID,0,
2014-12-29, 08:46:04,VALID,918.23,VALID,0,VALID,98.2277,VALID,88.8538,VALID,19.0788,VALID,59,VALID,0,
2014-12-29, 08:47:04,VALID,919.376,VALID,0,VALID,98.2125,VALID,90.4654,VALID,19.0803,VALID,59,VALID,0,
2014-12-29, 08:48:04,VALID,919.353,VALID,0,VALID,98.243,VALID,92.2919,VALID,19.0983,VALID,66,VALID,0,
2014-12-29, 08:49:04,VALID,918.795,VALID,0,VALID,98.2582,VALID,94.1184,VALID,19.0218,VALID,91,VALID,0,
2014-12-29, 08:50:04,VALID,920.474,VALID,0,VALID,98.2582,VALID,95.7301,VALID,19.0218,INVALID,360,INVALID,0,
2014-12-29, 08:51:04,VALID,920.484,VALID,0,VALID,98.2735,VALID,97.3417,VALID,19.0023,VALID,91,VALID,0,
2014-12-29, 08:52:04,VALID,920.521,VALID,0,VALID,98.2353,VALID,98.9533,VALID,19.0608,VALID,91,VALID,0,
2014-12-29, 08:53:04,VALID,919.806,VALID,0,VALID,98.2353,VALID,100.565,VALID,19.0788,VALID,91,VALID,0,
2014-12-29, 08:54:04,VALID,919.188,VALID,0,VALID,98.2277,VALID,102.391,VALID,19.1193,VALID,91,VALID,0,
2014-12-29, 08:55:04,VALID,919.484,VALID,0,VALID,98.2048,VALID,104.218,VALID,19.1583,VALID,91,VALID,0,
2014-12-29, 08:56:04,VALID,919.191,VALID,0,VALID,98.2048,VALID,106.152,VALID,19.1373,VALID,93,VALID,0,
2014-12-29, 08:57:04,VALID,918.644,VALID,0,VALID,98.2125,VALID,107.978,VALID,19.1373,VALID,104,VALID,0,
2014-12-29, 08:58:04,VALID,919.485,VALID,0,VALID,98.2048,VALID,109.59,VALID,19.1763,VALID,100,VALID,0,
2014-12-29, 08:59:04,VALID,918.441,VALID,0,VALID,98.2048,VALID,110.987,VALID,19.2753,VALID,103,VALID,0,
2014-12-29, 09:00:04,VALID,918.957,VALID,0,VALID,98.2048,VALID,112.276,VALID,19.1958,VALID,104,VALID,0.0289063,
2014-12-29, 09:01:04,VALID,918.508,VALID,0,VALID,98.182,VALID,113.673,VALID,19.2348,VALID,95,VALID,0.217969,
2014-12-29, 09:02:04,VALID,918.67,VALID,0,VALID,98.1743,VALID,115.177,VALID,19.3128,VALID,72,VALID,0,
2014-12-29, 09:03:04,VALID,918.735,VALID,0,VALID,98.1743,VALID,117.326,VALID,19.3338,VALID,113,VALID,0,
2014-12-29, 09:04:04,VALID,918.749,VALID,0,VALID,98.1515,VALID,119.797,VALID,19.3713,VALID,111,VALID,0,
2014-12-29, 09:05:04,VALID,918.654,VALID,0,VALID,98.1439,VALID,122.483,VALID,19.2933,VALID,78,VALID,0,
2014-12-29, 09:06:04,VALID,918.67,VALID,0,VALID,98.1439,VALID,125.384,VALID,19.3323,VALID,70,VALID,0.0234375,
2014-12-29, 09:07:04,VALID,918.632,VALID,0,VALID,98.1439,VALID,128.607,VALID,19.2738,VALID,76,VALID,0.0527344,
2014-12-29, 09:08:04,VALID,918.594,VALID,0.2,VALID,98.1362,VALID,131.508,VALID,19.2153,VALID,106,VALID,0.00078125,
2014-12-29, 09:09:04,VALID,918.598,VALID,0,VALID,98.1057,VALID,134.409,VALID,19.2948,VALID,85,VALID,0,
2014-12-29, 09:10:04,VALID,918.574,VALID,0,VALID,98.0829,VALID,137.202,VALID,19.2738,VALID,77,VALID,0,
2014-12-29, 09:11:04,VALID,918.562,VALID,0,VALID,98.0371,VALID,140.318,VALID,19.3533,VALID,99,VALID,0,
2014-12-29, 09:12:04,VALID,918.569,VALID,0,VALID,98.0448,VALID,143.326,VALID,19.3518,VALID,111,VALID,0,
2014-12-29, 09:13:04,VALID,918.544,VALID,0,VALID,98.0219,VALID,146.335,VALID,19.4103,VALID,111,VALID,0,
2014-12-29, 09:14:04,VALID,918.573,VALID,0,VALID,97.999,VALID,149.128,VALID,19.3713,VALID,119,VALID,0,
2014-12-29, 09:15:04,VALID,918.588,VALID,0,VALID,97.9914,VALID,151.814,VALID,19.3713,VALID,119,VALID,0,
2014-12-29, 09:16:04,VALID,918.583,VALID,0,VALID,97.9685,VALID,154.5,VALID,19.4103,VALID,104,VALID,0,
2014-12-29, 09:17:04,VALID,918.574,VALID,0,VALID,97.9075,VALID,157.509,VALID,19.4103,VALID,76,VALID,0,
2014-12-29, 09:18:04,VALID,918.558,VALID,0,VALID,97.8694,VALID,160.732,VALID,19.5078,VALID,78,VALID,0,
2014-12-29, 09:19:04,VALID,918.584,VALID,0,VALID,97.8465,VALID,163.848,VALID,19.5678,VALID,85,VALID,0,
2014-12-29, 09:20:04,VALID,918.606,VALID,0,VALID,97.816,VALID,167.501,VALID,19.5273,VALID,97,VALID,0,
2014-12-29, 09:21:04,VALID,918.577,VALID,0,VALID,97.7398,VALID,171.691,VALID,19.5663,VALID,86,VALID,0,
2014-12-29, 09:22:04,VALID,918.577,VALID,0,VALID,97.7093,VALID,176.096,VALID,19.6833,VALID,55,VALID,0,
2014-12-29, 09:23:04,VALID,918.595,VALID,0,VALID,97.6712,VALID,181.146,VALID,19.7613,VALID,56,VALID,0,
2014-12-29, 09:24:04,VALID,918.631,VALID,0,VALID,97.6712,VALID,186.41,VALID,19.8198,VALID,56,VALID,0,
2014-12-29, 09:25:04,VALID,918.572,VALID,0,VALID,97.6178,VALID,191.997,VALID,19.8183,VALID,98,VALID,0,
2014-12-29, 09:26:04,VALID,918.577,VALID,0,VALID,97.5645,VALID,197.262,VALID,19.8978,VALID,98,VALID,0,
2014-12-29, 09:27:04,VALID,918.555,VALID,0,VALID,97.473,VALID,202.419,VALID,19.9368,VALID,97,VALID,0,
2014-12-29, 09:28:04,VALID,918.513,VALID,0,VALID,97.4196,VALID,206.824,VALID,20.0343,VALID,69,VALID,0,
2014-12-29, 09:29:04,VALID,918.557,VALID,0,VALID,97.2977,VALID,210.585,VALID,19.9758,VALID,100,VALID,0,
2014-12-29, 09:30:04,VALID,918.563,VALID,0,VALID,97.1223,VALID,213.593,VALID,19.9173,VALID,100,VALID,0,
2014-12-29, 09:31:04,VALID,918.544,VALID,0,VALID,96.8326,VALID,215.849,VALID,19.8963,VALID,116,VALID,0,
2014-12-29, 09:32:04,VALID,918.571,VALID,0,VALID,96.7869,VALID,217.461,VALID,19.9953,VALID,119,VALID,0,
2014-12-29, 09:33:04,VALID,918.539,VALID,0,VALID,96.7716,VALID,219.287,VALID,20.0733,VALID,153,VALID,0,
2014-12-29, 09:34:04,VALID,918.578,VALID,0,VALID,96.6573,VALID,221.114,VALID,20.0538,VALID,156,VALID,0,
2014-12-29, 09:35:04,VALID,918.536,VALID,0,VALID,96.4972,VALID,223.692,VALID,19.9563,VALID,154,VALID,0,
2014-12-29, 09:36:04,VALID,918.531,VALID,0,VALID,96.4972,VALID,226.486,VALID,19.9953,VALID,148,VALID,0,
2014-12-29, 09:37:04,VALID,918.519,VALID,0,VALID,96.5353,VALID,229.924,VALID,20.0133,VALID,138,VALID,0,
2014-12-29, 09:38:04,VALID,918.514,VALID,0,VALID,96.6344,VALID,233.792,VALID,20.0718,VALID,134,VALID,0,
2014-12-29, 09:39:04,VALID,918.524,VALID,0,VALID,96.5201,VALID,237.767,VALID,20.0328,VALID,127,VALID,0.00820312,
2014-12-29, 09:40:04,VALID,918.493,VALID,0,VALID,96.5734,VALID,241.743,VALID,20.0928,VALID,126,VALID,0,
2014-12-29, 09:41:04,VALID,918.499,VALID,0,VALID,96.4515,VALID,244.966,VALID,20.0148,VALID,114,VALID,0.4125,
2014-12-29, 09:42:04,VALID,918.474,VALID,0,VALID,95.8263,VALID,246.792,VALID,19.9368,VALID,110,VALID,0.740234,
2014-12-29, 09:43:04,VALID,918.456,VALID,0,VALID,95.5062,VALID,248.726,VALID,19.9758,VALID,127,VALID,0.229297,
2014-12-29, 09:44:04,VALID,918.444,VALID,0,VALID,94.4236,VALID,250.875,VALID,19.9368,VALID,114,VALID,0.563281,
2014-12-29, 09:45:04,VALID,918.455,VALID,0,VALID,93.6613,VALID,254.743,VALID,19.9953,VALID,129,VALID,0.267578,
2014-12-29, 09:46:04,VALID,918.436,VALID,0,VALID,92.9523,VALID,258.933,VALID,19.9758,VALID,128,VALID,0.224609,
2014-12-29, 09:47:04,VALID,918.41,VALID,0,VALID,92.4568,VALID,263.553,VALID,19.9758,VALID,126,VALID,0.489844,
2014-12-29, 09:48:04,VALID,918.427,VALID,0,VALID,92.9828,VALID,268.281,VALID,19.9953,VALID,117,VALID,0.00195313,
2014-12-29, 09:49:04,VALID,918.366,VALID,0,VALID,94.7209,VALID,272.686,VALID,20.0913,VALID,160,VALID,0,
2014-12-29, 09:50:04,VALID,918.352,VALID,0,VALID,95.0411,VALID,277.521,VALID,20.1303,VALID,167,VALID,0,
2014-12-29, 09:51:04,VALID,918.382,VALID,0,VALID,93.9434,VALID,282.463,VALID,20.0898,VALID,131,VALID,0.5,
2014-12-29, 09:52:04,VALID,918.357,VALID,0,VALID,92.6779,VALID,286.975,VALID,20.0523,VALID,130,VALID,0.00664063,
2014-12-29, 09:53:04,VALID,918.333,VALID,0,VALID,94.6905,VALID,290.736,VALID,20.2083,VALID,143,VALID,0,
2014-12-29, 09:54:04,VALID,918.33,VALID,0,VALID,93.4707,VALID,295.463,VALID,20.1888,VALID,138,VALID,0.00585938,
2014-12-29, 09:55:04,VALID,918.329,VALID,0,VALID,94.1034,VALID,298.686,VALID,20.2863,VALID,146,VALID,0,
2014-12-29, 09:56:04,VALID,918.335,VALID,0,VALID,94.4694,VALID,301.695,VALID,20.4049,VALID,179,VALID,0.0105469,
2014-12-29, 09:57:04,VALID,918.28,VALID,0,VALID,92.4034,VALID,305.778,VALID,20.3643,VALID,141,VALID,0.466016,
2014-12-29, 09:58:04,VALID,918.302,VALID,0,VALID,91.5648,VALID,308.356,VALID,20.4033,VALID,156,VALID,0,
2014-12-29, 09:59:04,VALID,918.281,VALID,0,VALID,91.2142,VALID,310.075,VALID,20.4813,VALID,143,VALID,0,
2014-12-29, 10:00:04,VALID,918.275,VALID,0,VALID,90.9855,VALID,312.224,VALID,20.5594,VALID,160,VALID,0.00429688,
2014-12-29, 10:01:04,VALID,918.28,VALID,0,VALID,90.6577,VALID,315.125,VALID,20.6374,VALID,164,VALID,0,
2014-12-29, 10:02:04,VALID,918.277,VALID,0,VALID,90.3451,VALID,317.918,VALID,20.6569,VALID,148,VALID,0,
2014-12-29, 10:03:04,VALID,918.263,VALID,0,VALID,90.429,VALID,320.282,VALID,20.7349,VALID,149,VALID,0,
2014-12-29, 10:04:04,VALID,918.256,VALID,0,VALID,90.3451,VALID,323.828,VALID,20.7934,VALID,147,VALID,0,
2014-12-29, 10:05:04,VALID,918.271,VALID,0,VALID,90.3527,VALID,323.398,VALID,20.891,VALID,120,VALID,0.137109,
2014-12-29, 10:06:04,VALID,918.271,VALID,0,VALID,88.5765,VALID,322.861,VALID,20.8309,VALID,110,VALID,0,
2014-12-29, 10:07:04,VALID,918.278,VALID,0,VALID,88.1572,VALID,322.216,VALID,20.8714,VALID,107,VALID,0.18125,
2014-12-29, 10:08:04,VALID,918.238,VALID,0,VALID,87.1433,VALID,321.679,VALID,20.8504,VALID,106,VALID,0,
2014-12-29, 10:09:04,VALID,918.262,VALID,0,VALID,88.9195,VALID,321.571,VALID,20.9479,VALID,106,VALID,0,
2014-12-29, 10:10:04,VALID,918.245,VALID,0,VALID,90.124,VALID,319.96,VALID,21.0665,VALID,106,VALID,0,
2014-12-29, 10:11:04,VALID,918.248,VALID,0,VALID,89.9411,VALID,317.811,VALID,21.1445,VALID,120,VALID,0,
2014-12-29, 10:12:04,VALID,918.207,VALID,0,VALID,89.7581,VALID,314.158,VALID,21.2405,VALID,121,VALID,0,
2014-12-29, 10:13:04,VALID,918.207,VALID,0,VALID,88.8967,VALID,309.431,VALID,21.299,VALID,105,VALID,0,
2014-12-29, 10:14:04,VALID,918.22,VALID,0,VALID,87.9818,VALID,305.778,VALID,21.3965,VALID,146,VALID,0,
2014-12-29, 10:15:04,VALID,918.199,VALID,0,VALID,87.5854,VALID,302.447,VALID,21.455,VALID,146,VALID,0,
2014-12-29, 10:16:04,VALID,918.191,VALID,0,VALID,87.9209,VALID,301.48,VALID,21.5331,VALID,146,VALID,0,
2014-12-29, 10:17:04,VALID,918.195,VALID,0,VALID,87.1661,VALID,302.125,VALID,21.5331,VALID,146,VALID,0,
2014-12-29, 10:18:04,VALID,918.173,VALID,0,VALID,85.672,VALID,304.918,VALID,21.4144,VALID,146,VALID,0,
2014-12-29, 10:19:04,VALID,918.17,VALID,0,VALID,87.3186,VALID,311.902,VALID,21.455,VALID,153,VALID,0,
2014-12-29, 10:20:04,VALID,918.161,VALID,0,VALID,86.4419,VALID,316.092,VALID,21.4746,VALID,153,VALID,0,
2014-12-29, 10:21:04,VALID,918.126,VALID,0,VALID,84.8029,VALID,316.629,VALID,21.5136,VALID,153,VALID,0,
2014-12-29, 10:22:04,VALID,918.131,VALID,0,VALID,86.3199,VALID,316.951,VALID,21.6111,VALID,153,VALID,0,
2014-12-29, 10:23:04,VALID,918.095,VALID,0,VALID,86.3885,VALID,316.522,VALID,21.6891,VALID,162,VALID,0,
2014-12-29, 10:24:04,VALID,918.086,VALID,0,VALID,82.8132,VALID,316.092,VALID,21.6501,VALID,159,VALID,0,
2014-12-29, 10:25:04,VALID,918.087,VALID,0,VALID,80.1221,VALID,315.447,VALID,21.5916,VALID,159,VALID,0,
2014-12-29, 10:26:04,VALID,918.089,VALID,0,VALID,83.5298,VALID,314.48,VALID,21.6501,VALID,159,VALID,0,
2014-12-29, 10:27:04,VALID,918.087,VALID,0,VALID,79.5732,VALID,313.621,VALID,21.6306,VALID,159,VALID,0,
2014-12-29, 10:28:04,VALID,918.073,VALID,0,VALID,82.3405,VALID,313.728,VALID,21.6696,VALID,159,VALID,0,
2014-12-29, 10:29:04,VALID,918.102,VALID,0,VALID,81.3037,VALID,315.232,VALID,21.7477,VALID,159,VALID,0,
2014-12-29, 10:30:04,VALID,918.101,VALID,0,VALID,81.9365,VALID,318.133,VALID,21.785,VALID,159,VALID,0,
2014-12-29, 10:31:04,VALID,918.085,VALID,0,VALID,81.2809,VALID,322.001,VALID,21.8436,VALID,159,VALID,0,
2014-12-29, 10:32:04,VALID,918.077,VALID,0,VALID,81.967,VALID,327.266,VALID,21.9233,VALID,163,VALID,0,
2014-12-29, 10:33:04,VALID,918.059,VALID,0,VALID,79.4207,VALID,332.53,VALID,21.9818,VALID,163,VALID,0,
2014-12-29, 10:34:04,VALID,918.07,VALID,0,VALID,78.8947,VALID,334.787,VALID,22.0794,VALID,163,VALID,0,
2014-12-29, 10:35:04,VALID,918.06,VALID,0,VALID,79.9163,VALID,332.423,VALID,22.1769,VALID,163,VALID,0,
2014-12-29, 10:36:04,VALID,918.093,VALID,0,VALID,77.7207,VALID,328.77,VALID,22.1574,VALID,163,VALID,0,
2014-12-29, 10:37:04,VALID,918.064,VALID,0,VALID,78.1781,VALID,325.439,VALID,22.1964,VALID,157,VALID,0,
2014-12-29, 10:38:04,VALID,918.073,VALID,0,VALID,79.1158,VALID,323.828,VALID,22.1769,VALID,151,VALID,0,
2014-12-29, 10:39:04,VALID,918.091,VALID,0,VALID,76.7221,VALID,324.15,VALID,22.1184,VALID,154,VALID,0,
2014-12-29, 10:40:04,VALID,918.09,VALID,0,VALID,75.8149,VALID,325.547,VALID,22.0794,VALID,154,VALID,0,
2014-12-29, 10:41:04,VALID,918.045,VALID,0,VALID,76.1656,VALID,326.514,VALID,21.9801,VALID,154,VALID,0,
2014-12-29, 10:42:04,VALID,918.094,VALID,0,VALID,76.1198,VALID,326.406,VALID,21.9411,VALID,154,VALID,0,
2014-12-29, 10:43:04,VALID,918.088,VALID,0,VALID,78.4754,VALID,326.084,VALID,22.0013,VALID,154,VALID,0,
2014-12-29, 10:44:04,VALID,918.071,VALID,0,VALID,76.5925,VALID,326.406,VALID,22.0403,VALID,154,VALID,0,
2014-12-29, 10:45:04,VALID,918.078,VALID,0,VALID,78.2162,VALID,327.266,VALID,22.1167,VALID,166,VALID,0,
2014-12-29, 10:46:04,VALID,918.042,VALID,0,VALID,76.3256,VALID,328.555,VALID,22.2142,VALID,166,VALID,0,
2014-12-29, 10:47:04,VALID,918.043,VALID,0,VALID,76.4324,VALID,329.952,VALID,22.2923,VALID,166,VALID,0,
2014-12-29, 10:48:04,VALID,918.039,VALID,0,VALID,77.4692,VALID,331.134,VALID,22.3525,VALID,166,VALID,0,
2014-12-29, 10:49:04,VALID,918.022,VALID,0,VALID,74.5036,VALID,332.53,VALID,22.4111,VALID,167,VALID,0,
2014-12-29, 10:50:04,VALID,918.025,VALID,0,VALID,71.4314,VALID,334.679,VALID,22.4874,VALID,167,VALID,0,
2014-12-29, 10:51:04,VALID,918.041,VALID,0,VALID,71.439,VALID,337.795,VALID,22.624,VALID,167,VALID,0,
2014-12-29, 10:52:04,VALID,918.007,VALID,0,VALID,72.2929,VALID,341.448,VALID,22.7411,VALID,173,VALID,0,
2014-12-29, 10:53:04,VALID,917.981,VALID,0,VALID,69.8,VALID,345.638,VALID,22.8191,VALID,175,VALID,0,
2014-12-29, 10:54:04,VALID,917.976,VALID,0,VALID,70.4632,VALID,350.688,VALID,22.9167,VALID,178,VALID,0,
2014-12-29, 10:55:04,VALID,917.961,VALID,0,VALID,72.1404,VALID,356.275,VALID,22.9557,VALID,185,VALID,0,
2014-12-29, 10:56:04,VALID,917.932,VALID,0,VALID,73.7794,VALID,360.895,VALID,23.0143,VALID,185,VALID,0,
2014-12-29, 10:57:04,VALID,917.911,VALID,0,VALID,74.496,VALID,366.159,VALID,23.0924,VALID,189,VALID,0,
2014-12-29, 10:58:04,VALID,917.921,VALID,0,VALID,70.4861,VALID,370.242,VALID,23.1314,VALID,183,VALID,0,
2014-12-29, 10:59:04,VALID,917.905,VALID,0,VALID,70.7148,VALID,373.895,VALID,23.1899,VALID,184,VALID,0.359766,
2014-12-29, 11:00:04,VALID,917.877,VALID,0,VALID,74.1987,VALID,376.474,VALID,23.229,VALID,184,VALID,0,
2014-12-29, 11:01:04,VALID,917.855,VALID,0,VALID,76.0131,VALID,378.515,VALID,23.268,VALID,169,VALID,0,
2014-12-29, 11:02:04,VALID,917.864,VALID,0,VALID,74.4503,VALID,377.011,VALID,23.0711,VALID,162,VALID,0,
2014-12-29, 11:03:04,VALID,917.839,VALID,0,VALID,74.4503,VALID,379.267,VALID,23.016,VALID,144,VALID,0,
2014-12-29, 11:04:04,VALID,917.825,VALID,0,VALID,76.1808,VALID,384.102,VALID,22.9948,VALID,142,VALID,0,
2014-12-29, 11:05:04,VALID,917.819,VALID,0,VALID,76.1198,VALID,388.615,VALID,23.1136,VALID,146,VALID,0,
2014-12-29, 11:06:04,VALID,917.778,VALID,0,VALID,72.2319,VALID,392.268,VALID,23.1136,VALID,163,VALID,0.144922,
2014-12-29, 11:07:04,VALID,917.765,VALID,0,VALID,73.6803,VALID,393.449,VALID,23.1509,VALID,162,VALID,0,
2014-12-29, 11:08:04,VALID,917.749,VALID,0,VALID,71.0045,VALID,388.722,VALID,23.1704,VALID,172,VALID,0.000390625,
2014-12-29, 11:09:04,VALID,917.742,VALID,0,VALID,73.8252,VALID,383.243,VALID,23.1509,VALID,168,VALID,0,
2014-12-29, 11:10:04,VALID,917.718,VALID,0,VALID,76.0283,VALID,380.449,VALID,23.1119,VALID,131,VALID,0,
2014-12-29, 11:11:04,VALID,917.704,VALID,0,VALID,76.3866,VALID,379.804,VALID,23.229,VALID,130,VALID,0.00117188,
2014-12-29, 11:12:04,VALID,917.712,VALID,0,VALID,75.144,VALID,379.912,VALID,23.3461,VALID,145,VALID,0.0015625,
2014-12-29, 11:13:04,VALID,917.689,VALID,0,VALID,71.0807,VALID,381.524,VALID,23.3869,VALID,152,VALID,0,
2014-12-29, 11:14:04,VALID,917.679,VALID,0,VALID,68.4507,VALID,385.069,VALID,23.2875,VALID,157,VALID,0.683984,
2014-12-29, 11:15:04,VALID,917.672,VALID,0,VALID,72.7198,VALID,384.317,VALID,23.268,VALID,165,VALID,0.192578,
2014-12-29, 11:16:04,VALID,917.666,VALID,0,VALID,71.5763,VALID,381.416,VALID,23.2875,VALID,174,VALID,0.193359,
2014-12-29, 11:17:04,VALID,917.666,VALID,0,VALID,72.4225,VALID,379.912,VALID,23.2485,VALID,159,VALID,0.501172,
2014-12-29, 11:18:04,VALID,917.64,VALID,0,VALID,72.2929,VALID,379.912,VALID,23.1704,VALID,168,VALID,0.639453,
2014-12-29, 11:19:04,VALID,917.64,VALID,0,VALID,74.9611,VALID,379.375,VALID,23.1899,VALID,165,VALID,0,
2014-12-29, 11:20:04,VALID,917.597,VALID,0,VALID,74.8315,VALID,378.515,VALID,23.229,VALID,167,VALID,0.605469,
2014-12-29, 11:21:04,VALID,917.559,VALID,0,VALID,72.8799,VALID,376.366,VALID,23.307,VALID,157,VALID,0,
2014-12-29, 11:22:04,VALID,917.545,VALID,0,VALID,73.7337,VALID,374.647,VALID,23.3656,VALID,151,VALID,0,
2014-12-29, 11:23:04,VALID,917.544,VALID,0,VALID,74.618,VALID,373.68,VALID,23.4632,VALID,151,VALID,0,
2014-12-29, 11:24:04,VALID,917.555,VALID,0,VALID,71.1189,VALID,371.746,VALID,23.5217,VALID,188,VALID,0,
2014-12-29, 11:25:04,VALID,917.536,VALID,0,VALID,71.4848,VALID,369.168,VALID,23.5004,VALID,166,VALID,0.326172,
2014-12-29, 11:26:04,VALID,917.522,VALID,0,VALID,70.326,VALID,367.019,VALID,23.5217,VALID,160,VALID,0,
2014-12-29, 11:27:04,VALID,917.508,VALID,0,VALID,71.8888,VALID,364.87,VALID,23.5412,VALID,169,VALID,0,
2014-12-29, 11:28:04,VALID,917.504,VALID,0,VALID,67.4596,VALID,362.292,VALID,23.5022,VALID,171,VALID,0.770703,
2014-12-29, 11:29:04,VALID,917.512,VALID,0,VALID,69.6704,VALID,359.82,VALID,23.5217,VALID,169,VALID,0.170312,
2014-12-29, 11:30:04,VALID,917.475,VALID,0,VALID,71.7897,VALID,359.606,VALID,23.559,VALID,160,VALID,0.0546875,
2014-12-29, 11:31:04,VALID,917.497,VALID,0,VALID,69.2435,VALID,359.283,VALID,23.5395,VALID,182,VALID,0.678906,
2014-12-29, 11:32:04,VALID,917.425,VALID,0,VALID,69.4036,VALID,358.101,VALID,23.5004,VALID,164,VALID,0.0382813,
2014-12-29, 11:33:04,VALID,917.441,VALID,0,VALID,72.7503,VALID,355.2,VALID,23.5004,VALID,165,VALID,0,
2014-12-29, 11:34:04,VALID,917.412,VALID,0,VALID,67.9399,VALID,353.481,VALID,23.5395,VALID,146,VALID,0,
2014-12-29, 11:35:04,VALID,917.405,VALID,0,VALID,69.1139,VALID,351.547,VALID,23.5004,VALID,146,VALID,0,
2014-12-29, 11:36:04,VALID,917.393,VALID,0,VALID,70.9206,VALID,349.399,VALID,23.5785,VALID,146,VALID,0,
2014-12-29, 11:37:04,VALID,917.366,VALID,0,VALID,72.6283,VALID,347.68,VALID,23.6956,VALID,146,VALID,0,
2014-12-29, 11:38:04,VALID,917.356,VALID,0,VALID,71.0502,VALID,346.175,VALID,23.8109,VALID,146,VALID,0,
2014-12-29, 11:39:04,VALID,917.332,VALID,0,VALID,71.3399,VALID,345.638,VALID,24.0274,VALID,146,VALID,0,
2014-12-29, 11:40:04,VALID,917.36,VALID,0,VALID,69.5713,VALID,346.498,VALID,24.1836,VALID,145,VALID,0,
2014-12-29, 11:41:04,VALID,917.323,VALID,0,VALID,70.1202,VALID,350.258,VALID,24.2793,VALID,101,VALID,0,
2014-12-29, 11:42:04,VALID,917.3,VALID,0,VALID,63.7089,VALID,355.953,VALID,24.2226,VALID,91,VALID,0.0105469,
2014-12-29, 11:43:04,VALID,917.28,VALID,0,VALID,66.1026,VALID,360.787,VALID,24.125,VALID,91,VALID,0,
2014-12-29, 11:44:04,VALID,917.258,VALID,0,VALID,69.2816,VALID,366.589,VALID,24.0274,VALID,91,VALID,0,
2014-12-29, 11:45:04,VALID,917.259,VALID,0,VALID,68.2982,VALID,374.647,VALID,24.0079,VALID,92,VALID,0,
2014-12-29, 11:46:04,VALID,917.265,VALID,0,VALID,69.0834,VALID,386.788,VALID,24.0079,VALID,95,VALID,0,
2014-12-29, 11:47:04,VALID,917.238,VALID,0,VALID,66.217,VALID,399.359,VALID,24.0097,VALID,158,VALID,0,
2014-12-29, 11:48:04,VALID,917.2,VALID,0,VALID,66.7735,VALID,413.326,VALID,24.0079,VALID,158,VALID,0,
2014-12-29, 11:49:04,VALID,917.194,VALID,0,VALID,64.3416,VALID,432.558,VALID,23.9884,VALID,150,VALID,0,
2014-12-29, 11:50:04,VALID,917.229,VALID,0,VALID,70.5852,VALID,450.501,VALID,24.1659,VALID,148,VALID,0,